sat.trackr.live / text

‹ back to catalog

STARLINK-33717

NORAD 63648 · 2025-083Q

PAYLOAD ACTIVE UNKNOWN

§ Identity

Operator
Country
US
Launch date
2025-04-25
Launch site
AFETR
Launch vehicle
Mass (kg)
RCS (m²)

Purposes: comms

External: N2YO · Heavens-Above · Gunter

§ Orbital elements

Epoch: 2026-05-24T21:24:10.225728Z

Period
94.27 min
Inclination
42.9996°
Eccentricity
0.0002321
Mean motion
15.27601887 rev/d
Perigee alt
481.4 km
Apogee alt
484.6 km
Semi-major
6,861.1 km
B*
9.2439e-4
RAAN
294.6353°
Arg perigee
298.1386°
Mean anomaly
61.9231°
Rev number
6,172

§ Raw data

STARLINK-337171 63648U 25083Q   26144.89178502  .00025280  00000+0  92439-3 0  99982 63648  42.9996 294.6353 0002321 298.1386  61.9231 15.27601887 61728

JSON: /api/v1/satellites/63648 · /tle

For live sub-satellite position, see the globe view (requires WebGL).

§ Visibility from observer

Set your observer location to see the next 7 days of passes ≥ 10°. The values pass through the URL so the page stays shareable.

No JS? Fill the form by hand. The geolocation button needs JavaScript.